Tracking 27380 objects as of 6-Jun-2023
HD Live streaming from Space Station
objects crossing your sky now

GOES 12

Track GOES 12 now!
GOES 12 is classified as:


NORAD ID: 26871
Int'l Code: 2001-031A
Perigee: 36,091.4 km
Apogee: 36,140.1 km
Inclination: 10.2 °
Period: 1,452.6 minutes
Semi major axis: 42486 km
RCS: 12.8777 m2 (large)
Launch date: July 23, 2001
Source: United States (US)
Launch site: AIR FORCE EASTERN TEST RANGE (AFETR)

GOES 12 is an American geosynchronous weather satellite that was launched by an Atlas 2A rocket from Cape Canaveral at 07:23 UT on 23 July 2001. The spacecraft carries an IR imager, a "sounder", and an X-ray imager. The IR imager is a Cassegrain telescope covering five wavelength channels, 0.55-0.75, 3.80-4.00, 6.50-7.00, 10.20-11.20, and 11.50-12.50 microns. It can provide images covering 3,000 km x 3,000 km every 41 seconds, by scanning the area in 16 square kilometer sections.
Your satellite tracking list
Your tracking list is empty




NASA's NSSDC Master Catalog

Two Line Element Set (TLE):
1 26871U 01031A   23156.19154774  .00000036  00000-0  00000-0 0  9993
2 26871  10.1550  45.8218 0005729 350.0906   5.0417  0.99134030 79778
Source of the keplerian elements: AFSPC